Temp
-11 -11 -11 -11 -11 -11 -11 -12 -13 -14 -14 -15 -15 -15 -15 -14 -14 -12 -12 -12 -12 -12 -12 -11 -11 -11 -10 -10 -10 -10 -9 -8 -8 -8 -9 -10 -9 -10 -11 -10 -10 -9 -9 -9 -9
-10 -11 -11 -11 -11 -11 -12 -12 -13 -14 -14 -14 -14 -15 -14 -14 -13 -12 -11 -11 -12 -12 -12 -11 -11 -11 -11 -11 -10 -10 -9 -9 -10 -10 -10 -10 -10 -10 -10 -10 -10 -10 -10 -9 -9
-10 -11 -11 -11 -11 -11 -12 -12 -12 -13 -14 -14 -14 -14 -14 -14 -13 -12 -12 -11 -11 -11 -11 -11 -11 -11 -11 -11 -11 -10 -10 -10 -10 -10 -10 -10 -10 -10 -10 -10 -10 -10 -10 -10 -9
-11 -11 -11 -11 -11 -11 -11 -12 -12 -13 -13 -14 -14 -14 -14 -13 -13 -13 -12 -12 -11 -11 -11 -11 -11 -11 -11 -11 -11 -10 -10 -10 -10 -11 -10 -10 -10 -10 -10 -9 -11 -10 -11 -10 -9
-11 -11 -11 -11 -11 -11 -11 -12 -12 -12 -13 -13 -14 -14 -14 -14 -14 -13 -13 -12 -12 -12 -11 -11 -11 -11 -11 -11 -11 -10 -11 -11 -11 -11 -11 -11 -10 -11 -9 -10 -11 -10 -11 -10 -10
-11 -11 -11 -11 -11 -11 -11 -12 -12 -12 -12 -13 -13 -13 -14 -14 -14 -14 -13 -13 -13 -12 -12 -12 -11 -11 -11 -12 -12 -11 -11 -11 -11 -12 -12 -12 -11 -10 -10 -11 -11 -11 -10 -11 -11
-11 -11 -11 -11 -11 -12 -11 -12 -12 -12 -12 -12 -13 -13 -13 -13 -13 -14 -13 -13 -13 -13 -13 -13 -12 -12 -12 -12 -11 -11 -11 -11 -12 -13 -13 -12 -11 -10 -11 -12 -11 -11 -11 -11 -11
-11 -11 -11 -11 -11 -11 -12 -12 -12 -12 -12 -12 -12 -13 -13 -13 -13 -13 -14 -14 -14 -13 -13 -13 -12 -12 -12 -12 -12 -11 -11 -11 -12 -13 -13 -13 -11 -12 -12 -12 -12 -12 -12 -12 -12
-11 -11 -11 -11 -11 -11 -12 -12 -12 -12 -12 -12 -12 -12 -13 -13 -13 -12 -12 -13 -14 -14 -14 -13 -13 -13 -13 -13 -13 -13 -12 -12 -12 -13 -13 -12 -11 -12 -12 -12 -11 -12 -12 -12 -12
-11 -10 -11 -11 -11 -11 -11 -12 -12 -12 -12 -12 -12 -12 -12 -12 -13 -13 -12 -13 -13 -14 -14 -14 -14 -14 -13 -14 -13 -13 -13 -12 -12 -13 -13 -12 -11 -12 -12 -13 -12 -11 -12 -12 -12
-11 -11 -11 -11 -11 -11 -11 -12 -12 -12 -12 -12 -12 -12 -12 -12 -12 -13 -13 -13 -13 -13 -14 -14 -14 -14 -14 -14 -14 -14 -13 -13 -13 -13 -13 -13 -12 -12 -13 -13 -13 -12 -12 -12 -12
-12 -11 -11 -11 -11 -11 -11 -11 -12 -12 -12 -12 -12 -13 -13 -13 -12 -12 -13 -13 -13 -13 -13 -13 -14 -13 -14 -14 -14 -14 -14 -14 -14 -14 -14 -14 -13 -13 -13 -13 -13 -13 -13 -13 -12
-12 -12 -11 -11 -11 -11 -12 -12 -12 -12 -13 -13 -13 -13 -13 -13 -13 -13 -13 -13 -13 -13 -14 -14 -14 -13 -13 -13 -13 -14 -13 -14 -14 -14 -15 -14 -12 -13 -14 -14 -14 -14 -14 -14 -13
-12 -12 -12 -12 -12 -12 -12 -12 -12 -12 -13 -13 -13 -13 -13 -13 -13 -13 -13 -14 -14 -13 -13 -14 -14 -14 -14 -14 -14 -14 -14 -14 -14 -14 -14 -15 -12 -13 -14 -15 -15 -14 -15 -14 -14
-11 -12 -12 -12 -12 -12 -12 -12 -12 -13 -13 -13 -13 -13 -13 -14 -14 -14 -14 -14 -14 -14 -14 -15 -14 -14 -15 -15 -15 -15 -15 -15 -16 -16 -16 -16 -16 -13 -14 -14 -15 -15 -16 -17 -16
-11 -11 -12 -13 -12 -12 -12 -12 -12 -14 -14 -14 -13 -14 -14 -14 -14 -15 -15 -15 -15 -15 -15 -15 -15 -15 -15 -16 -16 -16 -16 -16 -17 -17 -16 -17 -18 -14 -16 -16 -16 -16 -17 -17 -17
-11 -11 -11 -12 -13 -12 -13 -13 -13 -14 -14 -14 -14 -14 -15 -15 -15 -15 -15 -15 -15 -15 -14 -15 -15 -15 -15 -15 -16 -16 -16 -16 -16 -17 -17 -18 -18 -17 -16 -17 -17 -18 -18 -17 -17
-11 -11 -11 -11 -12 -13 -13 -13 -13 -13 -14 -14 -14 -15 -15 -16 -15 -15 -15 -15 -15 -15 -15 -15 -14 -15 -15 -16 -16 -16 -17 -18 -18 -17 -18 -18 -18 -17 -17 -18 -17 -18 -17 -17 -17
-12 -12 -12 -11 -12 -12 -13 -14 -14 -14 -14 -14 -15 -15 -15 -15 -16 -16 -16 -16 -16 -16 -16 -16 -15 -16 -16 -16 -16 -16 -17 -18 -18 -18 -19 -18 -18 -17 -18 -18 -17 -17 -17 -17 -17
-12 -12 -12 -12 -12 -12 -13 -14 -14 -14 -15 -14 -15 -15 -15 -15 -16 -17 -16 -16 -16 -16 -16 -16 -16 -16 -17 -16 -16 -17 -18 -18 -18 -19 -19 -19 -19 -18 -19 -19 -19 -19 -18 -17 -16
-13 -12 -12 -12 -12 -13 -13 -14 -15 -14 -15 -15 -15 -15 -15 -15 -16 -16 -16 -16 -16 -16 -16 -16 -16 -16 -17 -17 -17 -18 -19 -19 -19 -20 -21 -20 -19 -19 -19 -19 -19 -20 -18 -18 -18
-13 -13 -13 -13 -13 -13 -14 -15 -15 -15 -15 -15 -16 -16 -16 -16 -16 -16 -16 -16 -16 -16 -16 -16 -16 -16 -17 -17 -19 -19 -19 -19 -19 -20 -20 -21 -19 -20 -20 -19 -19 -19 -19 -18 -19
-13 -13 -13 -13 -13 -13 -14 -15 -15 -16 -16 -16 -16 -16 -16 -16 -16 -16 -16 -16 -16 -17 -17 -16 -16 -16 -17 -18 -19 -19 -20 -20 -20 -20 -20 -21 -21 -21 -21 -21 -20 -19 -19 -19 -19
-14 -14 -13 -13 -13 -14 -14 -15 -15 -16 -16 -16 -16 -16 -17 -16 -16 -17 -17 -16 -16 -17 -17 -16 -17 -18 -18 -19 -20 -19 -20 -20 -20 -20 -20 -20 -21 -21 -22 -21 -20 -20 -19 -19 -19
-14 -14 -14 -14 -14 -14 -14 -14 -15 -16 -16 -17 -17 -17 -17 -16 -17 -17 -17 -16 -17 -17 -17 -17 -17 -18 -19 -20 -20 -20 -20 -21 -21 -21 -20 -21 -21 -21 -21 -21 -20 -19 -19 -19 -18
-15 -15 -15 -14 -14 -14 -14 -15 -16 -16 -16 -17 -17 -17 -17 -17 -17 -17 -17 -17 -17 -17 -17 -17 -18 -18 -20 -20 -20 -20 -20 -20 -21 -20 -20 -21 -20 -21 -20 -20 -20 -20 -19 -19 -18
-15 -15 -15 -15 -15 -14 -15 -15 -16 -16 -16 -17 -17 -17 -17 -17 -17 -17 -17 -17 -17 -17 -17 -18 -18 -19 -20 -20 -20 -20 -20 -20 -21 -21 -21 -21 -21 -20 -20 -20 -20 -20 -20 -19 -19
Height
5783 5780 5776 5773 5769 5766 5761 5754 5747 5740 5736 5731 5727 5725 5724 5725 5728 5733 5737 5745 5751 5756 5761 5766 5770 5775 5778 5782 5785 5788 5792 5798 5805 5810 5817 5814 5819 5823 5822 5824 5825 5829 5834 5839 5841
5779 5776 5773 5770 5766 5763 5758 5753 5746 5740 5736 5733 5730 5727 5726 5726 5729 5731 5737 5741 5745 5751 5756 5761 5766 5770 5774 5776 5780 5783 5788 5793 5798 5800 5805 5807 5808 5812 5814 5820 5818 5820 5823 5829 5832
5775 5772 5769 5766 5763 5759 5756 5751 5746 5740 5736 5734 5732 5730 5729 5729 5730 5732 5734 5738 5742 5745 5750 5754 5759 5764 5767 5771 5774 5778 5783 5784 5788 5790 5794 5798 5798 5802 5804 5812 5816 5810 5812 5815 5819
5771 5768 5765 5762 5760 5757 5753 5749 5746 5741 5737 5733 5732 5731 5730 5730 5732 5731 5733 5735 5738 5741 5745 5748 5753 5756 5759 5764 5766 5771 5774 5776 5780 5781 5784 5792 5792 5793 5798 5809 5807 5805 5804 5805 5809
5766 5763 5761 5759 5756 5754 5751 5747 5744 5741 5737 5734 5732 5730 5730 5731 5731 5731 5732 5734 5736 5738 5740 5743 5745 5749 5753 5757 5760 5764 5768 5770 5773 5775 5778 5783 5786 5788 5798 5797 5796 5800 5801 5801 5804
5762 5759 5757 5754 5752 5750 5748 5745 5742 5740 5737 5734 5732 5730 5729 5729 5728 5728 5730 5731 5732 5735 5737 5739 5742 5745 5747 5749 5753 5755 5758 5760 5762 5765 5766 5771 5779 5781 5791 5783 5788 5791 5796 5796 5798
5759 5756 5752 5750 5748 5747 5745 5742 5740 5738 5736 5734 5732 5730 5728 5727 5725 5725 5726 5728 5730 5731 5733 5735 5738 5740 5742 5743 5744 5747 5750 5751 5753 5753 5756 5759 5769 5777 5776 5775 5778 5784 5787 5790 5791
5756 5752 5749 5746 5744 5743 5741 5739 5737 5736 5734 5732 5730 5729 5728 5726 5724 5722 5722 5723 5726 5727 5729 5731 5733 5736 5738 5740 5741 5742 5743 5742 5742 5741 5745 5749 5761 5764 5760 5764 5768 5773 5776 5778 5782
5752 5748 5745 5744 5741 5738 5737 5736 5734 5732 5731 5729 5728 5727 5726 5725 5724 5722 5720 5719 5720 5723 5724 5727 5729 5730 5732 5734 5735 5736 5736 5736 5737 5734 5734 5739 5748 5751 5749 5752 5759 5761 5764 5767 5771
5749 5745 5741 5738 5737 5735 5732 5732 5731 5729 5727 5726 5725 5726 5723 5722 5721 5720 5719 5718 5717 5718 5720 5722 5725 5727 5728 5726 5727 5727 5727 5728 5727 5730 5728 5731 5737 5737 5740 5742 5750 5752 5752 5755 5758
5747 5742 5738 5734 5733 5731 5729 5727 5728 5726 5724 5723 5721 5720 5720 5719 5718 5717 5716 5716 5716 5715 5714 5716 5720 5723 5718 5719 5722 5722 5722 5721 5721 5721 5722 5724 5726 5726 5726 5733 5738 5741 5742 5742 5745
5743 5739 5735 5731 5727 5726 5724 5723 5722 5722 5718 5719 5717 5716 5715 5714 5714 5714 5714 5714 5713 5713 5713 5714 5714 5711 5713 5714 5714 5713 5714 5715 5716 5715 5712 5712 5718 5718 5716 5718 5722 5727 5729 5731 5734
5740 5735 5731 5729 5724 5721 5719 5718 5716 5716 5715 5713 5711 5711 5711 5710 5709 5709 5710 5710 5710 5710 5710 5709 5708 5708 5709 5708 5707 5708 5707 5706 5705 5706 5703 5700 5705 5707 5707 5706 5708 5711 5717 5719 5721
5735 5732 5728 5724 5722 5717 5714 5713 5711 5711 5710 5710 5707 5706 5706 5706 5705 5705 5705 5706 5705 5707 5707 5705 5704 5703 5703 5703 5698 5702 5699 5696 5695 5694 5693 5696 5685 5695 5696 5695 5697 5702 5701 5704 5706
5730 5728 5724 5720 5717 5713 5711 5707 5705 5706 5705 5702 5701 5700 5700 5702 5701 5701 5701 5700 5700 5700 5703 5698 5697 5697 5697 5695 5692 5692 5691 5689 5686 5682 5678 5679 5677 5681 5684 5683 5687 5687 5686 5686 5688
5725 5723 5719 5716 5712 5709 5705 5703 5700 5700 5698 5696 5695 5695 5695 5695 5695 5696 5697 5697 5695 5694 5695 5695 5692 5691 5691 5689 5686 5683 5681 5678 5675 5673 5664 5672 5668 5656 5672 5669 5667 5669 5668 5670 5674
5722 5719 5714 5712 5709 5704 5701 5699 5696 5692 5692 5690 5689 5690 5689 5689 5689 5689 5690 5689 5689 5686 5687 5687 5688 5685 5683 5680 5677 5675 5672 5665 5662 5661 5654 5657 5650 5647 5661 5652 5653 5652 5654 5657 5659
5718 5714 5710 5706 5702 5698 5696 5693 5690 5685 5684 5683 5682 5683 5683 5683 5684 5683 5682 5680 5679 5677 5677 5676 5678 5676 5675 5670 5664 5662 5659 5655 5644 5642 5639 5642 5633 5644 5645 5641 5637 5640 5642 5646 5648
5712 5709 5705 5701 5696 5692 5690 5687 5683 5680 5679 5676 5675 5676 5675 5675 5675 5675 5673 5673 5672 5670 5670 5666 5667 5665 5663 5658 5655 5652 5649 5645 5637 5633 5624 5625 5626 5631 5630 5628 5630 5631 5632 5635 5639
5707 5704 5699 5695 5691 5686 5683 5680 5677 5674 5671 5670 5669 5668 5668 5668 5668 5667 5665 5666 5665 5665 5662 5660 5656 5659 5654 5649 5646 5642 5639 5633 5629 5622 5616 5615 5615 5618 5618 5619 5620 5623 5624 5625 5626
5702 5699 5695 5690 5686 5681 5677 5673 5671 5667 5666 5664 5662 5661 5661 5661 5660 5659 5658 5658 5657 5656 5655 5653 5651 5651 5646 5640 5637 5635 5631 5626 5622 5618 5613 5608 5608 5607 5609 5608 5608 5613 5615 5615 5618
5697 5695 5690 5685 5682 5676 5671 5668 5665 5661 5659 5658 5656 5655 5655 5655 5654 5652 5651 5651 5650 5649 5648 5647 5643 5642 5640 5634 5630 5628 5624 5618 5614 5612 5608 5603 5602 5600 5598 5598 5600 5603 5605 5605 5607
5691 5688 5685 5680 5675 5671 5666 5662 5659 5656 5653 5652 5650 5650 5648 5647 5646 5646 5644 5643 5642 5642 5641 5640 5637 5633 5631 5628 5624 5622 5617 5612 5607 5604 5601 5595 5593 5591 5586 5589 5593 5594 5596 5596 5598
5687 5682 5678 5674 5670 5665 5660 5656 5653 5649 5646 5645 5644 5643 5642 5641 5640 5639 5637 5636 5636 5636 5634 5632 5631 5626 5622 5618 5616 5615 5611 5606 5601 5597 5593 5589 5581 5584 5580 5582 5584 5584 5585 5588 5589
5680 5677 5672 5667 5663 5659 5655 5650 5647 5645 5642 5638 5637 5637 5636 5635 5633 5632 5630 5629 5630 5630 5628 5625 5623 5618 5615 5611 5610 5608 5605 5602 5597 5593 5586 5585 5578 5575 5575 5575 5575 5577 5578 5578 5578
5672 5669 5666 5661 5658 5653 5648 5644 5640 5637 5636 5633 5631 5630 5630 5629 5626 5626 5624 5622 5623 5623 5621 5618 5615 5611 5610 5606 5604 5603 5599 5595 5591 5586 5582 5577 5574 5571 5570 5568 5568 5567 5566 5565 5567
5665 5661 5659 5653 5650 5646 5640 5636 5632 5630 5628 5624 5623 5623 5623 5622 5620 5618 5618 5617 5617 5616 5614 5612 5608 5605 5605 5602 5599 5598 5594 5589 5586 5581 5577 5573 5570 5566 5564 5561 5558 5556 5554 5554 5554
Wind_Speed
25 24 24 24 24 25 26 28 30 15 17 16 13 9 10 14 19 21 22 28 34 36 36 34 33 33 33 35 39 42 47 46 45 44 37 36 44 49 48 52 52 48 45 51 53
25 25 24 23 22 23 24 25 26 20 12 13 10 7 7 12 17 20 20 26 29 33 35 35 34 33 33 33 34 37 41 40 39 38 35 35 41 46 52 52 57 56 54 52 54
25 25 24 23 22 21 22 22 23 21 11 10 9 7 6 8 13 17 20 24 30 31 33 35 36 36 36 35 35 35 36 37 36 38 39 38 44 46 49 52 55 58 58 59 57
25 25 23 22 21 20 20 20 19 19 17 9 10 8 6 6 9 14 20 22 27 32 34 35 37 37 39 39 39 38 40 41 40 42 41 37 43 48 50 47 54 60 61 61 63
24 24 24 22 20 19 18 19 17 16 15 14 9 11 12 10 10 12 17 20 24 27 33 37 39 39 40 40 42 42 42 42 42 41 41 40 43 46 45 50 56 58 62 63 63
24 23 23 22 20 19 18 17 17 15 14 13 12 11 8 13 18 18 16 17 20 22 26 30 34 37 39 39 40 43 44 44 44 41 43 43 41 45 44 52 54 58 60 63 65
21 23 22 22 21 18 18 17 16 16 14 13 11 11 11 10 12 18 22 20 19 20 21 23 27 30 32 36 40 41 43 44 43 41 41 43 42 39 44 47 54 53 58 63 65
22 24 23 22 21 19 18 18 16 16 14 14 13 10 10 11 12 11 16 20 25 23 22 22 24 25 28 31 35 37 42 43 42 45 42 43 43 41 46 48 50 53 55 59 63
24 21 21 25 23 20 18 18 17 17 15 14 15 14 12 11 11 11 11 12 14 25 26 23 22 22 23 25 28 31 36 40 41 42 45 47 48 44 48 52 53 54 55 58 61
25 23 22 22 22 20 19 18 18 19 18 16 16 15 15 15 12 13 11 7 10 13 22 28 26 24 24 27 28 31 34 36 39 39 44 47 49 48 49 51 51 55 58 59 61
25 26 23 20 21 24 21 19 18 19 19 17 18 17 17 16 16 13 13 11 8 11 16 20 24 26 34 33 32 31 33 35 37 39 41 42 46 48 50 50 51 52 56 62 63
24 24 26 21 18 22 22 18 18 19 23 18 20 19 18 19 18 18 16 13 13 14 14 15 18 28 30 31 34 36 39 39 41 41 45 46 43 46 50 52 51 51 53 56 61
24 24 24 24 22 20 21 20 19 19 20 22 22 21 20 20 19 19 19 18 16 17 18 19 21 23 24 27 31 32 34 37 40 41 46 50 45 49 50 52 52 53 51 55 56
27 26 24 23 23 20 19 20 21 21 21 22 22 22 21 20 22 21 21 20 20 20 21 22 23 26 26 27 34 32 35 39 42 44 46 44 55 48 50 51 52 50 51 52 54
29 26 27 27 25 24 23 21 20 21 23 23 20 21 20 19 21 22 22 23 23 22 20 23 25 27 28 29 32 34 36 38 41 45 51 49 52 52 48 51 47 51 48 54 55
30 28 28 25 22 22 23 25 23 20 23 24 23 22 23 22 23 23 22 23 25 25 25 23 26 27 28 30 32 35 37 39 43 44 55 46 44 57 39 39 42 44 49 52 60
29 29 28 26 25 29 30 26 25 22 25 27 25 22 20 24 24 23 26 28 28 30 26 26 25 28 30 33 35 36 40 47 51 50 57 48 48 52 30 40 34 32 38 48 54
30 30 28 28 28 25 27 26 26 27 26 28 27 24 22 23 25 27 30 30 27 28 28 29 28 29 31 35 41 42 44 46 53 56 57 51 60 41 41 48 41 38 37 41 48
29 28 28 28 28 29 27 26 28 29 27 28 28 25 26 24 26 27 30 31 31 31 33 34 33 33 35 39 43 45 45 43 45 47 49 46 41 43 46 39 38 37 36 32 42
28 28 27 29 31 31 28 27 27 27 28 29 27 28 26 26 28 30 33 32 32 34 33 33 36 32 37 42 44 43 43 42 42 43 43 38 35 25 25 38 32 26 30 35 37
26 28 29 28 31 32 30 28 27 27 25 26 28 29 28 26 27 30 32 33 33 33 32 32 35 35 37 41 41 36 36 37 37 33 30 36 33 30 32 32 34 28 30 32 33
25 26 29 32 32 32 32 27 26 26 25 24 26 28 28 25 25 27 30 31 32 31 30 31 35 35 34 36 33 30 32 33 34 30 30 34 34 23 20 34 31 28 32 36 35
30 28 29 31 32 34 34 32 25 25 24 22 25 25 26 26 28 26 30 30 29 28 29 30 33 35 34 32 29 28 29 31 32 31 30 35 33 35 42 31 28 28 26 31 33
28 28 29 31 31 33 35 33 26 26 25 23 22 23 24 23 24 26 29 30 28 24 27 31 31 32 32 30 28 27 28 30 31 29 31 28 31 23 31 29 33 34 34 30 30
30 29 28 32 35 34 36 38 29 25 22 20 23 23 25 23 22 25 28 28 25 23 27 29 30 31 26 26 26 26 26 26 30 32 31 18 24 15 22 29 30 33 34 35 35
32 31 30 32 34 36 38 37 32 26 23 21 20 22 23 22 23 23 26 26 23 24 27 28 29 30 21 23 26 23 25 25 27 23 26 25 23 21 22 21 26 28 27 30 36
35 33 32 34 34 39 39 40 33 26 25 24 21 20 21 20 22 24 25 24 18 23 25 28 29 26 14 21 24 23 24 24 23 25 28 28 32 33 31 33 33 31 33 35 39
Wind_Direction
304 305 306 310 316 319 325 333 343 323 326 328 318 286 241 224 214 224 239 234 229 231 231 230 231 232 232 234 235 236 237 237 240 242 240 235 231 237 236 247 248 247 246 236 234
307 303 304 307 314 320 324 331 343 345 315 330 333 305 251 222 220 211 225 238 235 233 235 234 234 236 237 236 237 237 239 239 239 239 235 229 232 229 233 239 251 252 252 248 241
310 308 304 305 309 319 324 328 337 350 317 306 325 327 286 242 217 221 217 223 238 241 238 238 238 237 237 237 239 238 238 240 239 238 235 227 229 229 232 231 233 244 245 247 245
311 309 309 304 306 312 322 325 330 341 352 301 281 295 294 268 244 232 227 224 222 232 240 241 239 238 241 241 240 240 242 241 241 241 237 230 230 231 233 235 229 238 242 247 250
310 309 309 308 304 305 314 322 323 328 339 344 333 270 263 266 262 247 238 233 231 230 231 235 240 242 242 242 244 246 245 248 248 249 248 242 236 233 237 238 233 232 239 246 249
313 313 312 308 306 302 304 312 317 318 321 327 335 333 314 261 253 251 247 243 238 238 239 239 240 243 246 246 244 246 248 250 251 248 249 246 238 238 235 237 236 237 237 242 246
322 321 315 313 306 302 299 302 307 311 311 310 314 320 320 303 277 263 252 246 244 241 239 241 244 244 245 248 249 250 249 249 250 252 249 247 240 238 236 237 238 238 240 241 245
326 324 318 317 312 304 298 294 297 301 303 302 301 300 301 307 308 299 268 256 245 243 242 243 242 244 246 249 250 251 251 252 253 254 252 252 247 237 236 234 236 237 240 241 243
331 328 322 319 312 307 301 294 290 290 291 294 294 296 297 296 298 300 306 275 257 248 247 247 249 249 250 252 252 252 252 252 253 259 260 256 251 243 241 238 234 237 238 240 241
334 329 326 325 319 311 302 298 291 286 283 284 284 289 291 293 291 292 294 301 269 261 251 248 248 254 258 254 249 250 253 253 254 253 257 259 257 254 247 246 242 239 239 238 238
330 332 325 325 319 315 308 299 291 284 285 279 278 278 281 283 284 281 283 287 273 259 256 256 258 256 253 254 258 258 257 259 262 264 260 261 258 259 258 251 248 245 243 244 243
321 327 330 324 320 316 308 305 291 284 287 278 276 276 280 283 274 276 280 278 273 268 267 261 252 252 256 260 258 258 258 260 262 265 266 264 258 263 264 261 256 246 244 243 245
316 325 327 329 328 320 309 309 298 285 281 282 281 277 275 276 274 273 269 275 274 269 269 262 258 260 263 265 266 266 269 268 267 262 265 267 261 257 261 265 263 262 254 248 246
304 312 316 320 323 317 308 303 300 293 282 278 276 272 268 269 265 265 273 272 271 270 272 272 272 269 269 270 275 279 275 276 276 275 273 269 272 264 264 264 263 262 264 259 248
309 307 309 319 311 307 307 305 297 290 281 280 277 279 271 267 267 267 275 277 273 272 270 274 277 279 281 279 279 283 283 283 283 281 279 274 275 279 274 269 265 259 255 251 252
327 327 317 310 316 314 315 313 302 289 275 273 275 274 279 273 270 276 266 264 267 267 268 265 271 276 280 278 281 284 287 286 284 279 277 284 279 277 280 276 264 260 249 244 242
327 329 329 320 306 302 306 309 305 289 282 273 274 275 277 276 274 268 267 272 270 272 268 265 267 273 279 284 285 288 287 285 284 281 280 279 272 270 271 279 273 265 263 247 243
327 327 323 322 316 309 304 301 299 292 280 277 275 278 274 267 268 271 276 279 278 281 282 280 280 285 291 292 294 298 297 296 294 294 293 284 272 277 271 276 265 261 262 250 250
325 326 329 327 323 316 305 298 298 294 293 283 280 273 271 270 272 274 275 276 281 285 289 292 292 296 298 298 298 299 300 298 295 294 292 292 285 260 269 273 267 263 252 257 256
323 325 328 329 324 321 316 302 297 297 292 289 276 271 270 271 269 269 270 277 278 283 286 287 290 296 296 296 297 300 302 301 299 296 292 291 292 280 271 263 260 264 262 259 259
323 324 328 331 328 324 320 309 300 292 292 294 288 283 281 282 276 272 277 280 281 279 280 285 290 297 297 296 299 299 298 297 297 295 280 284 291 275 274 271 250 259 258 256 260
320 325 330 331 328 327 327 321 303 297 292 291 292 289 286 282 281 280 282 277 277 278 281 287 294 296 296 296 294 292 298 298 297 297 289 282 259 264 263 249 257 259 250 252 249
317 320 327 329 330 329 329 326 314 294 282 286 289 288 288 288 287 284 278 275 275 278 288 293 295 297 297 295 290 296 301 299 301 301 312 297 300 279 277 267 258 257 245 245 246
316 319 325 327 330 332 332 329 317 302 286 281 282 282 284 285 285 281 272 274 275 279 288 292 298 300 301 298 295 302 304 296 303 311 303 321 300 268 275 274 261 258 251 255 253
316 317 321 323 325 330 332 329 321 304 287 281 285 281 283 288 288 279 274 276 276 283 292 300 304 301 299 286 294 306 305 291 295 307 301 319 309 295 276 264 251 251 257 261 265
316 315 316 316 318 323 326 326 320 306 291 269 274 277 281 293 292 282 279 271 277 291 299 305 306 307 303 285 297 302 307 309 303 294 307 309 302 302 294 274 259 260 267 269 264
313 313 316 314 317 320 323 324 315 305 293 270 268 281 283 294 292 284 277 272 284 295 301 307 309 311 304 290 297 303 308 308 310 307 306 297 293 293 290 285 280 275 273 267 263